Location: Raleigh
(35.7720°N, 78.6390°W)
Time: 02:26:49
(UTC-04:00)

Amateur Radio Satellites - All Passes

Search period start: 23 March 2017 01:56
Search period end: 24 March 2017 01:56
Location: Raleigh, 35.7720°N, 78.6390°W

Satellite Date Start Highest point End Downlink Frequencies (MHz)
Time Altitude Azimuth
NANOSAT C BR1 23 Mar 02:01:00 02:04:11 21° 291° (WNW) 02:07:20 145.865
EO-79 23 Mar 02:03:02 02:05:59 19° 292° (WNW) 02:08:55 145.935-145.965
SPROUT 23 Mar 02:09:57 02:11:40 12° 268° (W) 02:13:22 437.525
DX 1 23 Mar 02:19:14 02:22:24 20° 265° (W) 02:25:35 434.975-435.025
Gurwin Techsat 1B 23 Mar 02:19:56 02:24:16 25° 95° (E) 02:28:35 435.225
RS-15 23 Mar 02:25:56 02:28:44 11° 266° (W) 02:31:30 29.354- 29.394
Oscar 19 23 Mar 02:38:37 02:43:47 71° 102° (ESE) 02:48:57 437.125/150
SO-50 23 Mar 02:42:05 02:45:20 20° 250° (WSW) 02:48:34 436.795
BEESAT 23 Mar 03:11:37 03:16:20 67° 75° (ENE) 03:21:06 436.000
AO-7 23 Mar 03:19:30 03:24:11 16° 92° (E) 03:28:51 .
ITUPSAT 1 23 Mar 03:24:56 03:29:44 89° 256° (WSW) 03:34:33 437.325
O/OREOS (USA 219) 23 Mar 03:51:10 03:55:25 35° 65° (ENE) 03:59:38 437.305
Gurwin Techsat 1B 23 Mar 03:59:26 04:04:13 35° 290° (WNW) 04:09:00 435.225
ISS 23 Mar 04:03:50 04:04:49 11° 23° (NNE) 04:05:48 437.550
MOZHAYETS 4 23 Mar 04:05:22 04:09:59 84° 260° (W) 04:14:36
ITAMSAT 1 23 Mar 04:16:31 04:21:37 54° 101° (E) 04:26:40 435.822/435.867
KKS-1 23 Mar 04:17:30 04:21:14 27° 70° (ENE) 04:24:59 437.445
Oscar 19 23 Mar 04:20:17 04:22:27 13° 297° (WNW) 04:24:37 437.125/150
Tancredo 1 23 Mar 04:21:23 04:23:16 15° 27° (NNE) 04:25:10 437.200
CUBESAT XI-V 23 Mar 04:46:50 04:51:07 40° 73° (ENE) 04:55:24 437.345
BEESAT 23 Mar 04:53:42 04:54:31 10° 269° (W) 04:55:19 436.000
STARS 23 Mar 05:04:48 05:08:53 38° 72° (ENE) 05:13:00 437.465
AO-7 23 Mar 05:09:27 05:17:47 87° 288° (WNW) 05:26:04 .
O/OREOS (USA 219) 23 Mar 05:31:19 05:34:31 19° 260° (W) 05:37:41 437.305
ISS 23 Mar 05:38:34 05:41:50 63° 40° (NE) 05:45:07 437.550
KKS-1 23 Mar 05:54:08 05:57:42 24° 264° (W) 06:01:18 437.445
Tancredo 1 23 Mar 05:56:32 05:59:44 69° 225° (SW) 06:02:55 437.200
ITAMSAT 1 23 Mar 05:57:23 06:00:35 17° 296° (WNW) 06:03:47 435.822/435.867
XW-2B 23 Mar 06:21:09 06:22:07 11° 92° (E) 06:23:04 145.730 - 145.750
CUBESAT XI-V 23 Mar 06:25:43 06:28:37 16° 267° (W) 06:31:31 437.345
NUDT-PHONESAT 23 Mar 06:29:29 06:30:24 11° 92° (E) 06:31:18 437.300
XW-2C 23 Mar 06:30:01 06:32:12 15° 94° (E) 06:34:23 145.795 - 145.815
KAITUO 1B 23 Mar 06:31:12 06:32:32 12° 93° (E) 06:33:53 145.475/437.950
STARS 23 Mar 06:42:37 06:45:20 16° 266° (W) 06:48:05 437.465
AO-85 23 Mar 06:43:04 06:46:01 20° 52° (NE) 06:49:01 145.980
M-CUBED/EXP-1 PRIME 23 Mar 06:47:25 06:50:51 56° 255° (WSW) 06:54:34 437.505
DOVE 4 23 Mar 07:02:26 07:07:43 62° 100° (E) 07:12:54 437.250
AO-7 23 Mar 07:04:20 07:09:23 18° 306° (NW) 07:14:26 .
STRAND 1 23 Mar 07:16:22 07:21:04 37° 70° (ENE) 07:25:46 437.568
CUTE-I 23 Mar 07:16:30 07:21:44 52° 100° (E) 07:26:55 437.470
ISS 23 Mar 07:17:32 07:17:54 10° 234° (SW) 07:18:16 437.550
LilacSat-2 23 Mar 07:17:39 07:21:25 71° 101° (ESE) 07:25:09 437.200
XW-2F 23 Mar 07:23:33 07:27:16 79° 101° (ESE) 07:30:59 145.980 - 146.000
HO-68 23 Mar 07:33:43 07:38:30 19° 93° (E) 07:43:15 435.675
XW-2A 23 Mar 07:43:14 07:45:05 14° 94° (E) 07:46:55 145.665 - 145.685
YUBILEINY 23 Mar 07:44:43 07:52:10 32° 85° (E) 07:59:33 435.215
XW-2D 23 Mar 07:47:04 07:50:39 44° 285° (WNW) 07:54:13 145.860 - 145.880
NO-84 23 Mar 07:51:37 07:54:11 29° 128° (SE) 07:56:43 435.350 FM
XW-2B 23 Mar 07:52:58 07:56:28 38° 286° (WNW) 07:59:57 145.730 - 145.750
NUDT-PHONESAT 23 Mar 08:01:03 08:04:28 37° 286° (WNW) 08:07:52 437.300
XW-2C 23 Mar 08:03:11 08:06:25 28° 288° (WNW) 08:09:39 145.795 - 145.815
KAITUO 1B 23 Mar 08:03:18 08:06:40 35° 287° (WNW) 08:10:02 145.475/437.950
BEESAT 3 23 Mar 08:11:53 08:14:34 17° 50° (NE) 08:17:15 437.485
AO-85 23 Mar 08:22:56 08:26:23 29° 246° (WSW) 08:29:58 145.980
AAUSAT CUBESAT 2 23 Mar 08:27:52 08:29:50 13° 93° (E) 08:31:47 437.432
CUTE 1.7 + AOD 2 23 Mar 08:29:11 08:33:16 48° 99° (E) 08:37:21 437.475
SEEDS 23 Mar 08:30:08 08:33:52 31° 97° (E) 08:37:35 437.485
DOVE 4 23 Mar 08:41:47 08:44:48 15° 295° (WNW) 08:47:47 437.250
UWE-3 23 Mar 08:42:39 08:45:30 17° 93° (E) 08:48:17 435.000/436.395/437.385
STRAND 1 23 Mar 08:56:18 09:00:17 22° 265° (W) 09:04:17 437.568
CUTE-I 23 Mar 08:57:49 09:01:18 18° 296° (WNW) 09:04:48 437.470
FO-29 23 Mar 09:03:41 09:05:46 11° 56° (ENE) 09:07:51 435.910
CUBEBUG 2 23 Mar 09:06:51 09:11:14 58° 100° (E) 09:15:27 437.445
XW-2A 23 Mar 09:15:04 09:17:51 24° 288° (WNW) 09:20:35 145.665 - 145.685
HO-68 23 Mar 09:19:35 09:26:42 69° 288° (WNW) 09:33:48 435.675
NO-84 23 Mar 09:30:00 09:31:46 15° 324° (NW) 09:33:33 435.350 FM
Oscar 11 23 Mar 09:31:21 09:35:03 27° 96° (E) 09:38:43 .
ZACube-1 23 Mar 09:31:26 09:35:21 35° 98° (E) 09:39:10 437.345
YUBILEINY 23 Mar 09:40:11 09:48:33 48° 282° (WNW) 09:56:56 435.215
BEESAT 3 23 Mar 09:48:34 09:52:18 38° 246° (WSW) 09:56:00 437.485
TIGRISAT 23 Mar 09:50:02 09:53:50 25° 69° (ENE) 09:57:37 435.000
BEESAT 2 23 Mar 09:55:12 09:59:17 89° 70° (ENE) 10:03:18 435.950
UNISAT 6 23 Mar 09:58:33 10:02:44 33° 71° (ENE) 10:06:55 437.425
AAUSAT CUBESAT 2 23 Mar 10:01:33 10:05:26 41° 286° (WNW) 10:09:20 437.432
AO-73 23 Mar 10:01:56 10:06:10 79° 102° (ESE) 10:10:18 145.935
SEEDS 23 Mar 10:06:27 10:09:18 18° 291° (WNW) 10:12:09 437.485
CUTE 1.7 + AOD 2 23 Mar 10:06:58 10:08:39 12° 294° (WNW) 10:10:19 437.475
UWE-3 23 Mar 10:18:08 10:22:02 33° 288° (WNW) 10:25:49 435.000/436.395/437.385
DELFI C3 23 Mar 10:20:30 10:23:59 28° 97° (E) 10:27:27 145.870
PRISM 23 Mar 10:20:34 10:24:34 60° 259° (W) 10:28:36 437.425
JUGNU 23 Mar 10:23:19 10:26:30 15° 172° (S) 10:29:42 437.505
PCSat 23 Mar 10:25:17 10:30:19 41° 110° (ESE) 10:35:22 145.827
FO-29 23 Mar 10:41:43 10:49:27 64° 73° (ENE) 10:56:56 435.910
CUBEBUG 2 23 Mar 10:45:57 10:47:14 11° 296° (WNW) 10:48:31 437.445
Oscar 11 23 Mar 11:07:44 11:11:00 21° 291° (WNW) 11:14:14 .
ZACube-1 23 Mar 11:08:42 11:11:18 16° 293° (WNW) 11:13:52 437.345
HO-68 23 Mar 11:11:08 11:13:07 11° 306° (NW) 11:15:07 435.675
NANOSAT C BR1 23 Mar 11:15:19 11:17:44 15° 67° (ENE) 11:20:09 145.865
EO-79 23 Mar 11:17:01 11:19:49 17° 68° (ENE) 11:22:37 145.935-145.965
TIGRISAT 23 Mar 11:26:17 11:30:20 29° 264° (W) 11:34:25 435.000
AIST 2D 23 Mar 11:29:34 11:32:51 37° 75° (ENE) 11:36:09 435.315
LO-87 23 Mar 11:30:21 11:33:07 20° 95° (E) 11:35:51 145.935 - 145.965
UNISAT 6 23 Mar 11:35:51 11:39:26 21° 265° (W) 11:43:01 437.425
POLYITAN 1 23 Mar 11:42:44 11:46:35 34° 72° (ENE) 11:50:29 437.675
QB50P2 23 Mar 11:46:59 11:51:00 41° 73° (ENE) 11:55:02 145.880/145.840
DELFI C3 23 Mar 11:55:51 11:58:31 18° 291° (WNW) 12:01:12 145.870
DUCHIFAT 1 23 Mar 12:04:53 12:09:00 51° 74° (ENE) 12:13:08 145.980
PCSat 23 Mar 12:09:22 12:13:48 25° 307° (NW) 12:18:16 145.827
JUGNU 23 Mar 12:11:08 12:14:45 17° 183° (S) 12:18:22 437.505
RS-15 23 Mar 12:15:45 12:24:56 27° 101° (ESE) 12:34:18 29.354- 29.394
SRMSAT 23 Mar 12:19:45 12:22:19 13° 169° (S) 12:24:53 437.500
FO-29 23 Mar 12:28:35 12:34:42 25° 267° (W) 12:40:44 435.910
BUGSAT 1 23 Mar 12:36:28 12:40:20 37° 72° (ENE) 12:44:15 437.445
VELOX 1 23 Mar 12:43:59 12:47:31 23° 96° (E) 12:51:01 145.980
50 SAT 23 Mar 12:46:55 12:48:15 12° 94° (E) 12:49:34 437.505
NANOSAT C BR1 23 Mar 12:49:03 12:53:04 40° 261° (W) 12:57:06 145.865
ESTCUBE 1 23 Mar 12:50:57 12:55:28 82° 285° (WNW) 12:59:59 437.505/2401.250
EO-79 23 Mar 12:51:21 12:55:16 35° 262° (W) 12:59:12 145.935-145.965
LO-87 23 Mar 13:03:42 13:06:26 20° 289° (WNW) 13:09:10 145.935 - 145.965
POLYITAN 1 23 Mar 13:19:36 13:22:26 17° 266° (W) 13:25:16 437.675
UKube-1 23 Mar 13:21:43 13:24:23 16° 94° (E) 13:27:02 .
QB50P2 23 Mar 13:24:41 13:26:56 14° 267° (W) 13:29:11 145.880/145.840
Gurwin Techsat 1B 23 Mar 13:38:10 13:42:46 31° 69° (ENE) 13:47:22 435.225
DUCHIFAT 1 23 Mar 13:43:40 13:44:55 11° 268° (W) 13:46:10 145.980
Oscar 19 23 Mar 13:52:31 13:57:37 77° 75° (ENE) 14:02:45 437.125/150
SPROUT 23 Mar 13:55:33 13:59:46 57° 285° (WNW) 14:03:56 437.525
JUGNU 23 Mar 14:00:58 14:02:59 12° 193° (SSW) 14:05:00 437.505
SRMSAT 23 Mar 14:07:01 14:10:43 17° 179° (S) 14:14:25 437.500
DX 1 23 Mar 14:08:41 14:13:05 86° 103° (ESE) 14:17:28 434.975-435.025
BUGSAT 1 23 Mar 14:13:20 14:15:48 15° 267° (W) 14:18:18 437.445
AO-7 23 Mar 14:15:48 14:21:24 20° 55° (NE) 14:26:59 .
50 SAT 23 Mar 14:18:14 14:21:22 31° 287° (WNW) 14:24:29 437.505
VELOX 1 23 Mar 14:20:06 14:23:54 28° 290° (WNW) 14:27:41 145.980
RS-15 23 Mar 14:24:09 14:36:05 77° 301° (WNW) 14:48:32 29.354- 29.394
UKube-1 23 Mar 14:56:30 15:00:30 37° 288° (WNW) 15:04:29 .
SO-50 23 Mar 15:12:56 15:16:35 23° 111° (ESE) 15:20:14 436.795
BEESAT 23 Mar 15:15:23 15:18:58 21° 95° (E) 15:22:31 436.000
Gurwin Techsat 1B 23 Mar 15:18:04 15:22:37 29° 264° (W) 15:27:12 435.225
ITUPSAT 1 23 Mar 15:28:43 15:32:50 28° 97° (E) 15:36:55 437.325
ITAMSAT 1 23 Mar 15:31:27 15:36:36 62° 74° (ENE) 15:41:47 435.822/435.867
SRMSAT 23 Mar 15:56:07 15:59:08 14° 189° (S) 16:02:07 437.500
MOZHAYETS 4 23 Mar 16:03:41 16:07:34 27° 96° (E) 16:11:25
NO-84 23 Mar 16:03:59 16:07:21 67° 47° (NE) 16:11:00 435.350 FM
AO-7 23 Mar 16:04:48 16:13:10 84° 253° (WSW) 16:21:32 .
RS-15 23 Mar 16:41:33 16:51:03 25° 327° (NNW) 17:00:44 29.354- 29.394
CUBESAT XI-V 23 Mar 16:47:56 16:49:52 12° 92° (E) 16:51:49 437.345
BEESAT 23 Mar 16:52:29 16:56:46 34° 289° (WNW) 17:01:01 436.000
SO-50 23 Mar 16:52:37 16:56:51 34° 306° (NW) 17:01:03 436.795
ITUPSAT 1 23 Mar 17:06:38 17:10:31 25° 291° (WNW) 17:14:23 437.325
ITAMSAT 1 23 Mar 17:13:58 17:16:26 13° 268° (W) 17:18:54 435.822/435.867
MOZHAYETS 4 23 Mar 17:40:55 17:44:34 24° 291° (WNW) 17:48:11
KKS-1 23 Mar 17:46:43 17:51:13 80° 103° (ESE) 17:55:41 437.445
LilacSat-2 23 Mar 17:57:08 18:00:09 22° 71° (ENE) 18:03:11 437.200
O/OREOS (USA 219) 23 Mar 18:00:07 18:04:35 72° 108° (ESE) 18:09:08 437.305
YUBILEINY 23 Mar 18:00:37 18:03:45 12° 62° (ENE) 18:06:53 435.215
XW-2F 23 Mar 18:02:01 18:05:04 23° 71° (ENE) 18:08:07 145.980 - 146.000
AO-7 23 Mar 18:03:05 18:06:52 14° 269° (W) 18:10:41 .
HO-68 23 Mar 18:03:38 18:05:06 11° 54° (NE) 18:06:34 435.675
DOVE 4 23 Mar 18:04:59 18:09:14 41° 72° (ENE) 18:13:45 437.250
CUBESAT XI-V 23 Mar 18:23:00 18:27:31 54° 286° (WNW) 18:32:03 437.345
XW-2D 23 Mar 18:24:59 18:28:41 51° 75° (ENE) 18:32:23 145.860 - 145.880
M-CUBED/EXP-1 PRIME 23 Mar 18:29:34 18:31:58 14° 97° (E) 18:34:20 437.505
XW-2B 23 Mar 18:30:46 18:34:31 59° 76° (ENE) 18:38:17 145.730 - 145.750
STARS 23 Mar 18:32:43 18:37:09 72° 284° (WNW) 18:41:31 437.465
CUTE-I 23 Mar 18:35:18 18:40:36 65° 74° (ENE) 18:45:56 437.470
NUDT-PHONESAT 23 Mar 18:37:00 18:40:40 56° 76° (ENE) 18:44:21 437.300
KAITUO 1B 23 Mar 18:39:50 18:43:34 62° 76° (ENE) 18:47:16 145.475/437.950
XW-2C 23 Mar 18:40:43 18:44:32 83° 80° (E) 18:48:22 145.795 - 145.815
RS-15 23 Mar 19:03:59 19:10:17 15° 4° (N) 19:16:32 29.354- 29.394
PCSat 23 Mar 19:16:31 19:20:27 20° 51° (NE) 19:24:21 145.827
CUTE 1.7 + AOD 2 23 Mar 19:19:21 19:22:44 24° 70° (ENE) 19:26:08 437.475
SEEDS 23 Mar 19:20:04 19:22:32 16° 68° (ENE) 19:25:00 437.485
STRAND 1 23 Mar 19:30:57 19:33:57 15° 93° (E) 19:36:54 437.568
LilacSat-2 23 Mar 19:31:26 19:34:20 20° 265° (W) 19:37:13 437.200
XW-2F 23 Mar 19:36:24 19:39:08 19° 265° (W) 19:41:53 145.980 - 146.000
UWE-3 23 Mar 19:37:56 19:39:39 12° 65° (ENE) 19:41:22 435.000/436.395/437.385
XW-2A 23 Mar 19:42:42 19:46:06 60° 76° (ENE) 19:49:31 145.665 - 145.685
O/OREOS (USA 219) 23 Mar 19:43:38 19:44:31 10° 305° (NW) 19:45:24 437.305
DOVE 4 23 Mar 19:44:17 19:47:08 16° 269° (W) 19:50:07 437.250
HO-68 23 Mar 19:44:25 19:51:29 67° 71° (ENE) 19:58:33 435.675
YUBILEINY 23 Mar 19:53:22 20:02:05 75° 82° (E) 20:10:47 435.215
CUBEBUG 2 23 Mar 20:01:26 20:05:44 36° 72° (ENE) 20:10:04 437.445
M-CUBED/EXP-1 PRIME 23 Mar 20:02:04 20:06:34 54° 290° (WNW) 20:11:07 437.505
CUTE-I 23 Mar 20:18:32 20:21:02 13° 268° (W) 20:23:32 437.470
Oscar 11 23 Mar 20:24:16 20:26:52 16° 67° (ENE) 20:29:28 .
ZACube-1 23 Mar 20:24:26 20:27:56 22° 69° (ENE) 20:31:24 437.345
AAUSAT CUBESAT 2 23 Mar 20:48:08 20:52:13 84° 77° (ENE) 20:56:20 437.432
AO-73 23 Mar 20:53:56 20:58:13 42° 73° (ENE) 21:02:28 145.935
SEEDS 23 Mar 20:54:03 20:57:54 36° 262° (W) 21:01:45 437.485
CUTE 1.7 + AOD 2 23 Mar 20:55:04 20:58:28 23° 264° (W) 21:01:51 437.475
AO-85 23 Mar 20:56:01 20:58:15 14° 110° (ESE) 21:00:25 145.980
Tancredo 1 23 Mar 20:56:43 20:58:10 13° 127° (SE) 20:59:37 437.200
PCSat 23 Mar 20:58:53 21:04:11 55° 248° (WSW) 21:09:27 145.827
DELFI C3 23 Mar 21:05:13 21:06:34 12° 66° (ENE) 21:07:54 145.870
STRAND 1 23 Mar 21:08:25 21:13:23 52° 287° (WNW) 21:18:18 437.568
UWE-3 23 Mar 21:10:54 21:15:31 63° 259° (W) 21:20:08 435.000/436.395/437.385
RS-15 23 Mar 21:18:21 21:28:50 31° 39° (NE) 21:38:56 29.354- 29.394
HO-68 23 Mar 21:34:45 21:39:39 20° 267° (W) 21:44:35 435.675
CUBEBUG 2 23 Mar 21:38:54 21:42:23 20° 266° (W) 21:45:54 437.445
YUBILEINY 23 Mar 21:52:12 21:57:51 20° 280° (W) 22:03:32 435.215
Oscar 11 23 Mar 21:58:37 22:02:40 39° 262° (W) 22:06:42 .
ZACube-1 23 Mar 21:59:57 22:03:59 30° 263° (W) 22:08:01 437.345
PRISM 23 Mar 22:05:12 22:08:26 22° 96° (E) 22:11:39 437.425
ISS 23 Mar 22:16:09 22:19:24 82° 316° (NW) 22:22:41 437.550
Tancredo 1 23 Mar 22:30:55 22:33:59 46° 322° (NW) 22:37:04 437.200
AO-73 23 Mar 22:31:51 22:34:34 16° 267° (W) 22:37:17 145.935
AO-85 23 Mar 22:33:56 22:38:18 49° 302° (WNW) 22:42:24 145.980
DELFI C3 23 Mar 22:37:11 22:40:55 43° 261° (W) 22:44:40 145.870
TIGRISAT 23 Mar 23:20:06 23:24:33 76° 101° (ESE) 23:28:51 435.000
UNISAT 6 23 Mar 23:29:17 23:33:44 78° 283° (WNW) 23:38:03 437.425
RS-15 23 Mar 23:30:37 23:42:55 85° 243° (WSW) 23:54:34 29.354- 29.394
BEESAT 3 23 Mar 23:35:10 23:39:01 67° 118° (ESE) 23:42:57 437.485
LO-87 23 Mar 23:35:52 23:39:25 82° 255° (WSW) 23:43:03 145.935 - 145.965
VELOX 1 23 Mar 23:39:29 23:41:55 15° 66° (ENE) 23:44:23 145.980
PRISM 23 Mar 23:40:12 23:43:38 25° 290° (WNW) 23:47:04 437.425
FO-29 23 Mar 23:40:59 23:47:01 66° 101° (ESE) 23:52:23 435.910
BEESAT 2 23 Mar 23:44:06 23:47:31 29° 113° (ESE) 23:51:00 435.950
ESTCUBE 1 23 Mar 23:47:18 23:51:42 63° 75° (ENE) 23:56:08 437.505/2401.250
SO-50 23 Mar 23:48:06 23:49:31 11° 44° (NE) 23:50:55 436.795
ISS 23 Mar 23:54:52 23:56:20 12° 335° (NNW) 23:57:48 437.550
AIST 2D 24 Mar 00:30:19 00:33:49 72° 101° (E) 00:37:16 435.315
NANOSAT C BR1 24 Mar 00:36:04 00:39:59 36° 98° (E) 00:43:52 145.865
EO-79 24 Mar 00:38:30 00:42:34 43° 99° (E) 00:46:35 145.935-145.965
SPROUT 24 Mar 00:45:28 00:49:44 72° 76° (ENE) 00:54:02 437.525
50 SAT 24 Mar 00:48:28 00:51:49 53° 75° (ENE) 00:55:11 437.505
DX 1 24 Mar 01:01:07 01:05:17 49° 73° (ENE) 01:09:29 434.975-435.025
POLYITAN 1 24 Mar 01:05:31 01:09:46 85° 283° (WNW) 01:13:58 437.675
QB50P2 24 Mar 01:10:00 01:14:14 68° 285° (WNW) 01:18:25 145.880/145.840
VELOX 1 24 Mar 01:13:47 01:17:58 44° 261° (W) 01:22:12 145.980
BEESAT 3 24 Mar 01:16:00 01:17:03 11° 314° (NW) 01:18:07 437.485
BEESAT 2 24 Mar 01:22:17 01:25:18 20° 309° (NW) 01:28:21 435.950
SO-50 24 Mar 01:26:03 01:30:34 85° 243° (WSW) 01:35:03 436.795
DUCHIFAT 1 24 Mar 01:27:07 01:31:16 56° 285° (WNW) 01:35:21 145.980
FO-29 24 Mar 01:27:51 01:31:16 16° 300° (WNW) 01:34:29 435.910
UKube-1 24 Mar 01:47:27 01:51:42 66° 258° (WSW) 01:56:00 .
